W7KKE-3 Weather Reports


time (UTC)temp
C
wind
direction
speed
KPH
gust
KPH
rain 1hr
cm
rain 24hr
cm
rain mn
cm
humidity
%
barometer
mb
20260504120146 12 175 16.1 16.1 0.00 0.00 0.00 87 1008.9
20260504110646 12 190 3.2 14.5 0.00 0.00 0.00 87 1008.8
20260504110146 12 30 8.0 12.9 0.00 0.00 0.00 87 1008.9
20260504100146 12 158 3.2 16.1 0.00 0.00 0.00 88 1008.6
20260504081646 12 200 6.4 14.5 0.00 0.00 0.00 87 1008.7
20260504081148 12 239 6.4 12.9 0.00 0.00 0.00 86 1008.7
20260504080742 12 175 4.8 12.9 0.00 0.00 0.00 87 1008.7
20260504080646 12 175 4.8 12.9 0.00 0.00 0.00 87 1008.7
20260504080147 12 193 3.2 14.5 0.00 0.00 0.00 86 1008.6
20260504070146 12 177 4.8 16.1 0.00 0.00 0.00 86 1008.4
20260504060146 13 203 11.3 17.7 0.00 0.00 0.00 86 1008.2
20260504050646 12 179 6.4 20.9 0.00 0.00 0.00 85 1008.1
20260504050147 12 162 12.9 20.9 0.00 0.00 0.00 85 1008.0
20260504045647 12 219 6.4 20.9 0.00 0.00 0.00 85 1008.0
20260504045146 12 212 9.7 16.1 0.00 0.00 0.00 85 1008.0
20260504044646 12 204 6.4 16.1 0.00 0.00 0.00 85 1007.8
20260504044148 12 196 8.0 20.9 0.00 0.00 0.00 85 1007.9
20260504043646 12 205 11.3 20.9 0.00 0.00 0.00 85 1007.8
20260504043146 12 184 8.0 20.9 0.00 0.00 0.00 85 1007.8
20260504042647 12 196 14.5 19.3 0.00 0.00 0.00 84 1007.6
20260504042146 12 214 9.7 19.3 0.00 0.00 0.00 84 1007.5
20260504041148 12 187 4.8 17.7 0.00 0.00 0.00 84 1007.3
20260504040646 12 173 9.7 17.7 0.00 0.00 0.00 84 1007.1
20260504040147 12 166 9.7 25.7 0.00 0.00 0.00 84 1007.1
20260504035647 12 187 9.7 25.7 0.00 0.00 0.00 84 1007.0
20260504034646 12 190 14.5 25.7 0.00 0.00 0.00 84 1006.9
20260504034148 12 194 11.3 19.3 0.00 0.00 0.00 83 1006.9
20260504033646 13 184 8.0 19.3 0.00 0.00 0.00 83 1006.9
20260504033145 13 140 8.0 22.5 0.00 0.00 0.00 83 1006.9
20260504032647 13 154 4.8 22.5 0.00 0.00 0.00 82 1006.7
20260504032146 13 191 8.0 22.5 0.00 0.00 0.00 82 1006.7
20260504031646 13 254 8.0 17.7 0.00 0.00 0.00 82 1006.6
20260504031145 13 208 9.7 14.5 0.00 0.00 0.00 82 1006.6
20260504030646 13 238 4.8 14.5 0.00 0.00 0.00 81 1006.5
20260504030147 13 242 6.4 14.5 0.00 0.00 0.00 81 1006.4
20260504025647 13 228 4.8 12.9 0.00 0.00 0.00 81 1006.4
20260504025146 13 169 6.4 11.3 0.00 0.00 0.00 81 1006.3
20260504024646 13 177 6.4 17.7 0.00 0.00 0.00 81 1006.2
20260504024148 13 225 8.0 17.7 0.00 0.00 0.00 81 1006.2
20260504023646 13 190 8.0 17.7 0.00 0.00 0.00 81 1006.1
20260504023146 13 191 9.7 12.9 0.00 0.00 0.00 81 1006.1
20260504022645 13 156 8.0 12.9 0.00 0.00 0.00 80 1006.1
20260504022144 13 221 6.4 12.9 0.00 0.00 0.00 81 1006.0
20260504021645 13 208 4.8 12.9 0.00 0.00 0.00 81 1006.0
20260504021145 13 253 4.8 19.3 0.00 0.00 0.00 81 1006.0
20260504020645 13 179 3.2 19.3 0.00 0.00 0.00 81 1005.9
20260504020146 13 204 3.2 19.3 0.00 0.00 0.00 80 1005.9
20260504015645 13 191 9.7 16.1 0.00 0.00 0.00 80 1005.9
20260504014645 13 231 6.4 16.1 0.00 0.00 0.00 79 1005.8
20260504014145 14 189 3.2 16.1 0.00 0.00 0.00 79 1005.7
20260504013644 14 183 6.4 16.1 0.00 0.00 0.00 79 1005.8
20260504013145 14 172 8.0 16.1 0.00 0.00 0.00 78 1005.7
20260504012645 15 187 3.2 16.1 0.00 0.00 0.00 78 1005.7
20260504012145 15 194 6.4 12.9 0.00 0.00 0.00 77 1005.7
20260504011645 15 253 4.8 12.9 0.00 0.00 0.00 77 1005.7
20260504011145 15 232 6.4 17.7 0.00 0.00 0.00 77 1005.7
20260504010645 16 189 3.2 17.7 0.00 0.00 0.00 77 1005.6
20260504010146 16 207 8.0 17.7 0.00 0.00 0.00 76 1005.6
20260504005647 16 243 9.7 14.5 0.00 0.00 0.00 76 1005.6
20260504005144 16 215 6.4 14.5 0.00 0.00 0.00 76 1005.6
20260504004645 16 309 4.8 9.7 0.00 0.00 0.00 76 1005.6
20260504004148 16 253 1.6 6.4 0.00 0.00 0.00 76 1005.6
20260504003144 16 236 6.4 14.5 0.00 0.00 0.00 76 1005.5
20260504002645 16 235 3.2 14.5 0.00 0.00 0.00 75 1005.4
20260504002144 17 201 4.8 14.5 0.00 0.00 0.00 75 1005.4
20260504001644 17 169 3.2 14.5 0.00 0.00 0.00 74 1005.3
20260504001149 17 257 4.8 11.3 0.00 0.00 0.00 74 1005.3
20260504000644 17 246 3.2 11.3 0.00 0.00 0.00 74 1005.2
20260504000146 17 254 6.4 9.7 0.00 0.00 0.00 74 1005.2
20260503235645 17 268 3.2 6.4 0.00 0.00 0.00 74 1005.2
20260503235144 17 263 3.2 9.7 0.00 0.00 0.00 74 1005.1
20260503234645 18 239 3.2 9.7 0.00 0.00 0.00 73 1005.1
20260503234145 18 229 6.4 9.7 0.00 0.00 0.00 73 1005.1
20260503233644 18 271 4.8 9.7 0.00 0.00 0.00 73 1005.0
20260503233144 18 268 3.2 9.7 0.00 0.00 0.00 72 1005.0
20260503232144 18 231 3.2 8.0 0.00 0.00 0.00 70 1005.0
20260503231644 19 270 1.6 8.0 0.00 0.00 0.00 71 1005.0
20260503230644 19 239 4.8 6.4 0.00 0.00 0.00 70 1005.0
20260503230146 19 253 4.8 8.0 0.00 0.00 0.00 70 1005.1
20260503225645 19 246 4.8 8.0 0.00 0.00 0.00 69 1005.3
20260503224645 20 240 4.8 6.4 0.00 0.00 0.00 69 1005.4
20260503224145 20 243 4.8 6.4 0.00 0.00 0.00 70 1005.5
20260503223646 20 224 3.2 6.4 0.00 0.00 0.00 69 1005.5
20260503223144 20 282 3.2 8.0 0.00 0.00 0.00 68 1005.6
20260503222647 20 273 4.8 8.0 0.00 0.00 0.00 68 1005.7
20260503222144 20 249 3.2 8.0 0.00 0.00 0.00 67 1005.6
20260503221644 20 231 3.2 6.4 0.00 0.00 0.00 69 1005.7
20260503221148 20 218 3.2 6.4 0.00 0.00 0.00 69 1005.8
20260503220645 20 254 4.8 6.4 0.00 0.00 0.00 70 1005.9
20260503220147 20 247 3.2 6.4 0.00 0.00 0.00 69 1005.9
20260503215145 20 224 4.8 9.7 0.00 0.00 0.00 69 1006.0
20260503214145 20 256 4.8 9.7 0.00 0.00 0.00 69 1006.1
20260503213645 20 247 4.8 8.0 0.00 0.00 0.00 68 1006.2
20260503213144 20 233 4.8 6.4 0.00 0.00 0.00 68 1006.1
20260503212646 20 238 1.6 8.0 0.00 0.00 0.00 68 1006.2
20260503212145 20 246 3.2 8.0 0.00 0.00 0.00 69 1006.2
20260503211644 20 253 3.2 8.0 0.00 0.00 0.00 69 1006.2
20260503211148 20 242 6.4 6.4 0.00 0.00 0.00 70 1006.2
20260503210644 20 247 3.2 6.4 0.00 0.00 0.00 71 1006.1
20260503210147 20 278 3.2 6.4 0.00 0.00 0.00 72 1006.2
20260503205645 20 280 4.8 6.4 0.00 0.00 0.00 72 1006.2
20260503205144 20 267 1.6 6.4 0.00 0.00 0.00 70 1006.2
20260503204645 20 294 3.2 6.4 0.00 0.00 0.00 70 1006.2
20260503204145 20 280 4.8 4.8 0.00 0.00 0.00 71 1006.3
20260503203644 20 292 1.6 11.3 0.00 0.00 0.00 71 1006.3
20260503203144 20 298 4.8 11.3 0.00 0.00 0.00 69 1006.3
20260503202645 20 285 6.4 11.3 0.00 0.00 0.00 69 1006.3
20260503202145 21 301 4.8 11.3 0.00 0.00 0.00 70 1006.4
20260503201645 21 294 8.0 11.3 0.00 0.00 0.00 70 1006.3
20260503201147 21 301 8.0 11.3 0.00 0.00 0.00 69 1006.4
20260503200737 21 287 4.8 11.3 0.00 0.00 0.00 69 1006.4
20260503200646 21 287 4.8 11.3 0.00 0.00 0.00 69 1006.4
20260503195144 22 299 6.4 8.0 0.00 0.00 0.00 66 1006.5
20260503194644 22 289 4.8 8.0 0.00 0.00 0.00 67 1006.5
20260503194218 22 239 3.2 8.0 0.00 0.00 0.00 69 1006.4
20260503194145 22 239 3.2 8.0 0.00 0.00 0.00 69 1006.4
20260503193645 22 308 0.0 8.0 0.00 0.00 0.00 68 1006.5
20260503191645 21 270 3.2 6.4 0.00 0.00 0.00 68 1006.6
20260503190644 22 243 3.2 6.4 0.00 0.00 0.00 67 1006.6
20260503185648 21 278 0.0 3.2 0.00 0.00 0.00 71 1006.7
20260503185147 21 224 0.0 4.8 0.00 0.00 0.00 71 1006.7
20260503184645 20 260 0.0 4.8 0.00 0.00 0.00 73 1006.7
20260503184145 20 281 0.0 4.8 0.00 0.00 0.00 71 1006.8
20260503183645 20 322 1.6 4.8 0.00 0.00 0.00 73 1006.7
20260503183145 20 292 1.6 4.8 0.00 0.00 0.00 71 1006.7
20260503182645 20 285 0.0 4.8 0.00 0.00 0.00 74 1006.8
20260503182144 19 319 1.6 4.8 0.00 0.00 0.00 74 1006.8
20260503181644 19 296 1.6 3.2 0.00 0.00 0.00 74 1006.8
20260503181145 20 277 1.6 3.2 0.00 0.00 0.00 72 1006.8
20260503180644 20 291 0.0 3.2 0.00 0.00 0.00 73 1006.7
20260503180148 20 302 0.0 3.2 0.00 0.00 0.00 74 1006.7
20260503175645 20 287 0.0 3.2 0.00 0.00 0.00 73 1006.7
20260503175144 19 309 0.0 3.2 0.00 0.00 0.00 75 1006.7
20260503174644 18 0 0.0 0.0 0.00 0.00 0.00 76 1006.7
20260503174145 18 0 0.0 0.0 0.00 0.00 0.00 77 1006.7
20260503173645 18 284 0.0 0.0 0.00 0.00 0.00 78 1006.7
20260503173145 17 303 0.0 4.8 0.00 0.00 0.00 78 1006.8
20260503172646 17 288 1.6 4.8 0.00 0.00 0.00 77 1006.8
20260503172145 17 303 1.6 4.8 0.00 0.00 0.00 78 1006.8
20260503171645 17 296 0.0 4.8 0.00 0.00 0.00 77 1006.8
20260503170738 16 289 0.0 3.2 0.00 0.00 0.00 80 1006.8
20260503170645 16 289 0.0 3.2 0.00 0.00 0.00 80 1006.8
20260503170147 16 316 1.6 4.8 0.00 0.00 0.00 81 1006.7
20260503150644 12 298 3.2 6.4 0.00 0.00 0.00 88 1006.5
20260503150148 12 102 4.8 4.8 0.00 0.00 0.00 89 1006.5
20260503140147 10 0 0.0 3.2 0.00 0.00 0.00 88 1006.7
20260503131145 10 112 8.0 12.9 0.00 0.00 0.00 88 1006.2
20260503130644 10 107 11.3 12.9 0.00 0.00 0.00 88 1006.1
20260503130146 10 103 8.0 12.9 0.00 0.00 0.00 88 1006.2